| time (UTC) | temp F | wind direction | speed MPH | gust MPH | rain 1hr in | rain 24hr in | rain mn in | humidity % | barometer mb |
| 20260504201526 | 74 | 204 | 3.0 | 11.0 | 0.00 | 0.00 | 0.00 | 53 | 1010.4 |
| 20260504200018 | 74 | 241 | 5.0 | 15.0 | 0.00 | 0.00 | 0.00 | 53 | 1010.7 |
| 20260504194521 | 73 | 275 | 5.0 | 18.0 | 0.00 | 0.00 | 0.00 | 52 | 1010.9 |
| 20260504193026 | 72 | 262 | 5.0 | 13.0 | 0.00 | 0.00 | 0.00 | 54 | 1011.1 |
| 20260504191524 | 71 | 235 | 4.0 | 15.0 | 0.00 | 0.00 | 0.00 | 55 | 1011.4 |
| 20260504190030 | 70 | 215 | 6.0 | 20.0 | 0.00 | 0.00 | 0.00 | 55 | 1011.5 |
| 20260504184518 | 69 | 257 | 5.0 | 16.0 | 0.00 | 0.00 | 0.00 | 58 | 1011.9 |
| 20260504183027 | 67 | 195 | 2.0 | 12.0 | 0.00 | 0.00 | 0.00 | 60 | 1012.5 |
| 20260504181523 | 69 | 257 | 7.0 | 20.0 | 0.00 | 0.00 | 0.00 | 53 | 1013.1 |
| 20260504180028 | 71 | 188 | 5.0 | 15.0 | 0.00 | 0.00 | 0.00 | 52 | 1012.3 |
| 20260504174514 | 71 | 175 | 6.0 | 18.0 | 0.00 | 0.00 | 0.00 | 51 | 1011.8 |
| 20260504173020 | 71 | 235 | 2.0 | 13.0 | 0.00 | 0.00 | 0.00 | 53 | 1011.7 |
| 20260504171537 | 69 | 246 | 3.0 | 11.0 | 0.00 | 0.00 | 0.00 | 56 | 1011.9 |
| 20260504081529 | 44 | 70 | 0.0 | 0.0 | 0.00 | 0.00 | 0.00 | 90 | 1014.7 |
| 20260504050012 | 49 | 106 | 0.0 | 0.0 | 0.00 | 0.00 | 0.00 | 82 | 1015.7 |
| 20260504044521 | 49 | 229 | 0.0 | 0.0 | 0.00 | 0.00 | 0.00 | 80 | 1016.3 |
| 20260504043012 | 50 | 229 | 0.0 | 0.0 | 0.00 | 0.00 | 0.00 | 79 | 1016.2 |
| 20260504041512 | 50 | 229 | 0.0 | 0.0 | 0.00 | 0.00 | 0.00 | 79 | 1016.4 |
| 20260504040022 | 50 | 269 | 0.0 | 0.0 | 0.00 | 0.00 | 0.00 | 77 | 1016.4 |
| 20260504034516 | 51 | 200 | 0.0 | 0.0 | 0.00 | 0.00 | 0.00 | 74 | 1016.6 |
| 20260504033013 | 51 | 200 | 0.0 | 0.0 | 0.00 | 0.00 | 0.00 | 73 | 1016.1 |
| 20260504031514 | 51 | 224 | 0.0 | 2.0 | 0.00 | 0.00 | 0.00 | 68 | 1016.2 |
| 20260504030023 | 51 | 96 | 0.0 | 0.0 | 0.00 | 0.00 | 0.00 | 68 | 1016.4 |
| 20260504024518 | 52 | 96 | 0.0 | 2.0 | 0.00 | 0.00 | 0.00 | 68 | 1016.4 |
| 20260504023018 | 52 | 75 | 0.0 | 0.0 | 0.00 | 0.00 | 0.00 | 65 | 1016.3 |
| 20260504021519 | 53 | 22 | 0.0 | 0.0 | 0.00 | 0.00 | 0.00 | 63 | 1016.0 |
| 20260504020017 | 53 | 22 | 0.0 | 0.0 | 0.00 | 0.00 | 0.00 | 63 | 1015.9 |
| 20260504014515 | 53 | 22 | 0.0 | 2.0 | 0.00 | 0.00 | 0.00 | 60 | 1015.5 |
| 20260504013018 | 54 | 77 | 0.0 | 2.0 | 0.00 | 0.00 | 0.00 | 58 | 1015.2 |
| 20260504011520 | 54 | 77 | 0.0 | 1.0 | 0.00 | 0.00 | 0.00 | 57 | 1015.5 |
| 20260504010022 | 55 | 319 | 0.0 | 2.0 | 0.00 | 0.00 | 0.00 | 55 | 1015.5 |
| 20260504004520 | 57 | 319 | 0.0 | 1.0 | 0.00 | 0.00 | 0.00 | 54 | 1015.6 |
| 20260504003021 | 58 | 319 | 0.0 | 1.0 | 0.00 | 0.00 | 0.00 | 49 | 1015.6 |
| 20260504001522 | 59 | 319 | 0.0 | 1.0 | 0.00 | 0.00 | 0.00 | 50 | 1015.5 |
| 20260504000022 | 60 | 319 | 0.0 | 1.0 | 0.00 | 0.00 | 0.00 | 46 | 1015.5 |
| 20260503234535 | 61 | 309 | 2.0 | 3.0 | 0.00 | 0.00 | 0.00 | 40 | 1015.6 |
| 20260503233018 | 62 | 248 | 3.0 | 7.0 | 0.00 | 0.00 | 0.00 | 36 | 1015.8 |
| 20260503231521 | 63 | 215 | 1.0 | 8.0 | 0.00 | 0.00 | 0.00 | 31 | 1015.8 |
| 20260503230023 | 64 | 258 | 3.0 | 6.0 | 0.00 | 0.00 | 0.00 | 31 | 1015.8 |
| 20260503224524 | 64 | 252 | 5.0 | 9.0 | 0.00 | 0.00 | 0.00 | 29 | 1016.3 |
| 20260503223024 | 64 | 279 | 3.0 | 9.0 | 0.00 | 0.00 | 0.00 | 31 | 1016.3 |
| 20260503221523 | 63 | 266 | 5.0 | 9.0 | 0.00 | 0.00 | 0.00 | 30 | 1016.4 |
| 20260503220039 | 64 | 298 | 3.0 | 14.0 | 0.00 | 0.00 | 0.00 | 29 | 1016.4 |
| 20260503214509 | 65 | 217 | 2.0 | 15.0 | 0.00 | 0.00 | 0.00 | 30 | 1016.3 |
| 20260503213013 | 64 | 210 | 2.0 | 17.0 | 0.00 | 0.00 | 0.00 | 30 | 1016.3 |
| 20260503211516 | 64 | 229 | 4.0 | 13.0 | 0.00 | 0.00 | 0.00 | 30 | 1016.4 |
| 20260503210022 | 65 | 287 | 3.0 | 8.0 | 0.00 | 0.00 | 0.00 | 30 | 1016.7 |
| 20260503204505 | 64 | 266 | 4.0 | 9.0 | 0.00 | 0.00 | 0.00 | 30 | 1016.9 |
| 20260503203020 | 64 | 282 | 6.0 | 14.0 | 0.00 | 0.00 | 0.00 | 30 | 1017.2 |